Regional Weather Roundup
Issued by NWS

Home | Current Version | Previous Version | Graphics & Text | Print | Product List | Glossary On
Versions: 1 2 3 4 5 6 7 8 9 10 11 12 13 14 15 16 17 18 19 20 21 22 23 24 25 26 27 28 29 30 31 32 33 34 35 36 37 38 39 40 41 42 43 44 45 46 47 48 49 50
000
ASUS45 KBOU 240410
RWRCO

WEATHER ROUNDUP FOR COLORADO
NATIONAL WEATHER SERVICE DENVER/BOULDER CO
1000 PM MDT FRI SEP 23 2016

NOTE: "FAIR" INDICATES FEW OR NO CLOUDS BELOW 12000 FEET WITH NO
SIGNIFICANT WEATHER AND/OR OBSTRUCTIONS TO VISIBILITY.

COZ001>005-013-030-031-240500-
...NORTHWEST COLORADO...

CITY           SKY/WX    TMP DP  RH WIND       PRES   REMARKS
CRAIG          FAIR      40  33  76 SW6       30.07F
HAYDEN         FAIR      41  32  70 W10       30.07S
MEEKER         CLOUDY    42  35  76 SE3       30.08F
MOUNT WERNER   NOT AVBL
STEAMBOAT SPGS CLOUDY    39  36  88 CALM      30.06S
WALDEN           N/A     34  28  80 E10       30.10F WCI  26
$$

COZ006>008-011-240500-
...WEST CENTRAL VALLEYS...

CITY           SKY/WX    TMP DP  RH WIND       PRES   REMARKS
GRAND JUNCTION MOCLDY    47  39  74 E8        30.06S
MONTROSE       FAIR      44  39  82 SW3       30.12F
EAGLE          CLOUDY    39  36  87 NE5       30.12R
RIFLE          FAIR      44  41  89 E7        30.09F
DELTA          NOT AVBL
NUCLA          FAIR      43  34  70 E8        30.14R
$$

COZ017>023-064>068-240500-
...SOUTHWEST COLORADO...

CITY           SKY/WX    TMP DP  RH WIND       PRES   REMARKS
DURANGO        FAIR      36  33  89 CALM      30.15F
CORTEZ         FAIR      39  37  92 CALM      30.12S
PAGOSA SPRINGS FAIR      34  34 100 CALM      30.17F FOG
TELLURIDE      FAIR      34  30  87 CALM      30.20F
WOLF CREEK PAS FAIR      21  21 100 MISG      30.26F
$$

COZ009-010-012-014-032>034-037-058>063-240500-
...CENTRAL COLORADO...

CITY           SKY/WX    TMP DP  RH WIND       PRES   REMARKS
ASPEN          CLOUDY    36  32  85 CALM      30.11F
BUENA VISTA    LGT RAIN  37  33  88 NE5       30.12F
COPPER MTN     FAIR      28  14  54 MISG      30.17F
BERTHOUD PASS  HAZE      21   7  53 N20G35    30.14F VSB 1/4 WCI   6
COTTONWOOD PAS LGT SNOW  34  27  75 W17G29    30.13F WCI  23
GUNNISON       FAIR      34  32  93 CALM      30.17F
KREMMLING      FAIR      41  32  70 CALM      30.07F
LEADVILLE      FAIR      27  23  85 CALM      30.13F
MONARCH PASS   FOG       23  21  93 W26G35    30.30S VSB<1/4 WCI   6
SALIDA         FAIR      42  32  68 S14G21    30.19S
SUNLIGHT       HVY SNOW  32  30  93 MISG      30.20F VSB 1/4
WILKERSON PASS LGT SNOW  28  27  93 SW23G33   30.06F VSB 1   WCI  14
$$

COZ069>075-240500-
...SAN LUIS VALLEY/SANGRE DE CRISTO MOUNTAINS...

CITY           SKY/WX    TMP DP  RH WIND       PRES   REMARKS
ALAMOSA        FAIR      36  35  96 NW8       30.14F
LA VETA PASS   FAIR      32  27  80 MISG      30.08F
SAGUACHE       NOT AVBL
$$

COZ035-036-038>040-240500-
...NORTHERN COLORADO FRONT RANGE...

CITY           SKY/WX    TMP DP  RH WIND       PRES   REMARKS
DENVER INTL AP MOCLDY    62  27  26 SW20      29.85F
DMNS CITY PARK   N/A     59  29  33 SE3G17    29.85S
AURORA         MOCLDY    58  28  32 S6        29.88F
FRONT RANGE AP NOT AVBL
ERIE MUNI ARPT CLOUDY    63  28  26 CALM      29.83F
BOULDER MUN AP CLOUDY    63  28  27 SW10      29.83F
CENTENNIAL     CLOUDY    56  27  32 SW12      29.89F
BROOMFIELD     PTCLDY    63  28  27 W8        29.86F
FORT COLLINS   FAIR      57  39  51 S8        29.85R
LONGMONT       CLOUDY    65  30  27 NE7       29.83F
$$

COZ041-046-047-076>085-087-088-240500-
...PIKES PEAK/PALMER DIVIDE AND SOUTHERN FOOTHILLS...

CITY           SKY/WX    TMP DP  RH WIND       PRES   REMARKS
COLO. SPRINGS  FAIR      62  19  19 S12       29.86F
A. F. ACADEMY  MOCLDY    56  22  26 W23G36    29.86F
SCHRIEVER AFB  NOT AVBL
ELLICOTT       FAIR     N/A N/A N/A SW22G29   29.91F
FALCON         CLOUDY    56  27  33 CALM      29.90F
FORT CARSON    FAIR      59  19  21 S14       29.83R
LIMON          FAIR      58  29  33 W14G26    29.90R
MONUMENT HILL  MOCLDY    48  28  46 MISG      29.93F
TRINIDAD       FAIR      58  26  29 W18G28    29.97R
$$

COZ042>045-048>051-090-091-240500-
...NORTHEAST COLORADO...

CITY           SKY/WX    TMP DP  RH WIND       PRES   REMARKS
GREELEY ARPT   CLOUDY    61  34  36 CALM      29.85R
AKRON          TSTM      63  52  67 S15G33    29.79R
BURLINGTON     FAIR      70  56  61 S28G35    29.81R
WRAY           NOT AVBL
STERLING       CLOUDY    57  45  62 N21       29.84R
HOLYOKE        FAIR      77  54  44 SE22G28   29.77F
FORT MORGAN    FAIR      56  37  49 N30G39    29.83R
$$

COZ086-089-092>099-240500-
...SOUTHEAST COLORADO...

CITY           SKY/WX    TMP DP  RH WIND       PRES   REMARKS
PUEBLO         FAIR      61  29  29 W22G32    29.91R
LA JUNTA       FAIR      65  31  28 W29G37    29.88R
LAMAR          LGT RAIN  60  48  64 W18G37    29.88R
SPRINGFIELD    NOT AVBL
$$



USA.gov is the U.S. government's official web portal to all federal, state and local government web resources and services.